Showing default

COSMOS 2257, 22692

Orbit data source: Space-Track

COSMOS 2257, 22692 is a payload satellite owned by VKS (CIS) in LEO that was launched on Thu, 24 Jun 1993 UTC via a TSIKLON-3 launch vehicle from the Plesetsk Missile And Space Complex (PKMTR). Payload-class satellites include a variety of spacecraft equipped with specific instruments for various scientific and technological missions. These include communications satellites like Starlink; space stations such as the ISS; scientific satellites like the Hubble; Earth observation satellites from companies like Planet Labs, Umbra, and HawkEye 360; GPS; miniature CubeSats for education and research; and military/defense satellites.

Loading next visibility...
Identifier
22692, 1993-038F
Orbit
LEO
Country
Flag of CISCIS
Related business
Manufacturer
NPO PM
Mission
Defense Communications
Bus & Motor
STRELA-3, Unknown motor
Mass
225 kg wet, 225 kg dry
Launch date (UTC)
1993-06-24 (32 years ago)
Launch vehicle
TSIKLON-3
Launch site
Plesetsk Missile And Space Complex (PKMTR)
Object type
Payload
Rocket body
Debris
Shape & HBR
Cyl, 0.8 m
Radar Cross Section
1.257 m², Medium (>0.1 m² and < 1m²)

Expand to show TLE details & history
Last TLE update: 14 hours ago

TLE from 14 hours ago
0 COSMOS 2257
1 22692U 93038F   25311.22906198  .00000040  00000-0  16150-3 0  9993
2 22692  82.5829  20.2478 0009315 132.2587 227.9296 12.62254303491780
Epoch: 2025-11-07T05:29Z
TLE epoch observation values (Epoch: 2025-11-07T05:29:50.955Z)
Latitude
0.00005°
Longitude
-108.89053°
Altitude
1,421.251 km
Speed
7.148 km/s
True Right ascension
01h 20m 59s
True Declination
0° 00' 00"
Sunlit
Object was in full shadow at epoch
Visualization orbit readout
Latitude
Unknown
Longitude
Unknown
Altitude
Unknown
Speed
Unknown
Apparent Right ascension
Unknown
Apparent Declination
Unknown
Sunlit
N/A
Visualization observer readout
Local Sidereal Time
15:49:54
Azimuth
Unknown
Elevation
Unknown
Doppler factor
Unknown
Orbital elements
Apogee altitude
1,418.23 km
Perigee altitude
1,403.719 km
Semi-major axis
7,789.111 km
Eccentricity
0.00093
Inclination
82.5829°
RAAN
20.2478°
Arg. of periapsis
132.2587°
True anomaly
227.85042°
Mean anomaly
227.9296°
Eccentric anomaly
227.89001°
Mean motion
3.15727 °/min
Orbital period
114.02 mins
BSTAR
0.0001615
Loading maneuver chart data...
Computing Atmospheric mass density...
Loading historical data...
Loading historical data...
Loading historical data...
Loading historical data...
Loading historical data...
Loading historical data...
Loading historical data...

Documentation

Showing up to 5 results
|